Location: ??????
(55.2000°N, 38.3000°E)
Time: 13:22:08
(UTC+00:00)

Cosmos 1461 - Visible Passes

Search period start: 14 February 2026 00:00
Search period end: 24 February 2026 00:00
Orbit: 426 x 503 km, 65.0° (Epoch: 13 February)

Date Brightness Start Highest point End Pass type
(mag) Time Alt. Az. Time Alt. Az. Time Alt. Az.
14 Feb 4.5 01:49:42 25° NNE 01:49:42 25° NNE 01:52:50 10° ENE visible
14 Feb 2.6 03:23:37 15° NW 03:26:43 80° NE 03:30:25 10° SE visible
15 Feb 5.1 01:18:36 20° NE 01:18:36 20° NE 01:20:30 10° ENE visible
15 Feb 2.9 02:52:32 24° NW 02:54:37 63° NE 02:58:17 10° ESE visible
16 Feb 5.8 00:47:31 13° ENE 00:47:31 13° ENE 00:48:06 10° ENE visible
16 Feb 3.3 02:21:27 38° NNW 02:22:27 50° NE 02:26:03 10° ESE visible
16 Feb 3.5 03:55:31 10° WNW 03:58:51 30° WSW 04:02:05 10° S visible
17 Feb 3.8 01:50:24 40° NE 01:50:24 40° NE 01:53:44 10° ESE visible
17 Feb 3.1 03:24:21 18° WNW 03:26:46 40° SW 03:30:13 10° SSE visible
18 Feb 4.8 01:19:24 24° ENE 01:19:24 24° ENE 01:21:20 10° E visible
18 Feb 2.6 02:53:20 35° WNW 02:54:37 54° SW 02:58:12 10° SSE visible
19 Feb 5.7 00:48:29 12° E 00:48:29 12° E 00:48:51 10° E visible
19 Feb 2.4 02:22:25 72° SW 02:22:25 72° SW 02:26:03 10° SE visible
19 Feb 4.6 03:56:44 10° W 03:58:13 12° WSW 03:59:42 10° SW visible
20 Feb 3.8 01:51:35 35° SE 01:51:35 35° SE 01:53:47 10° SE visible
20 Feb 4.2 03:25:32 16° WSW 03:26:06 16° WSW 03:28:25 10° SSW visible
21 Feb 5.3 01:20:52 14° ESE 01:20:52 14° ESE 01:21:25 10° SE visible
21 Feb 4.1 02:54:50 19° SW 02:54:50 19° SW 02:56:44 10° S visible
22 Feb 4.8 02:24:16 13° S 02:24:16 13° S 02:24:49 10° S visible
